• In Austria
  • List of Countries
  • For 7 days
  • Water Temperature
  • Satellite Maps
  • Weather Map
  • News
  • Weather Widgets
  • user-avatar
    Login

    Hourly Weather Ganja

    Today, 16 December, Saturday

    Time Temperature Precipitation Wind Pressure Humidity
    00:00 +7°C° 0 mm 1 mps 728 mmHg 73%
    01:00 +7°C° 0 mm 1 mps 728 mmHg 72%
    02:00 +7°C° 0 mm 1 mps 729 mmHg 71%
    03:00 +6°C° 0 mm 1 mps 729 mmHg 70%
    04:00 +6°C° 0 mm 1 mps 729 mmHg 68%
    05:00 +6°C° 0 mm 1 mps 729 mmHg 67%
    06:00 +6°C° 0 mm 1 mps 729 mmHg 66%
    07:00 +7°C° 0 mm 1 mps 730 mmHg 63%
    08:00 +8°C° 0 mm 1 mps 730 mmHg 61%
    09:00 +9°C° 0 mm 1 mps 730 mmHg 59%
    10:00 +10°C° 0 mm 1 mps 730 mmHg 56%
    11:00 +10°C° 0 mm 2 mps 730 mmHg 53%
    12:00 +12°C° 0 mm 2 mps 730 mmHg 50%
    13:00 +12°C° 0 mm 2 mps 730 mmHg 52%
    14:00 +12°C° 0 mm 2 mps 729 mmHg 54%
    15:00 +12°C° 0 mm 2 mps 729 mmHg 55%
    16:00 +9°C° 0 mm 2 mps 730 mmHg 61%
    17:00 +9°C° 0 mm 1 mps 730 mmHg 66%
    18:00 +8°C° 0 mm 1 mps 730 mmHg 72%
    19:00 +8°C° 0 mm 1 mps 730 mmHg 73%
    20:00 +7°C° 0 mm 1 mps 731 mmHg 73%
    21:00 +7°C° 0 mm 1 mps 731 mmHg 74%
    22:00 +7°C° 0 mm 1 mps 731 mmHg 74%
    23:00 +7°C° 0 mm 1 mps 731 mmHg 74%

    Tomorrow, 17 December, Sunday

    Time Temperature Precipitation Wind Pressure Humidity
    00:00 +6°C° 0 mm 1 mps 731 mmHg 74%
    01:00 +6°C° 0 mm 1 mps 731 mmHg 73%
    02:00 +6°C° 0 mm 1 mps 731 mmHg 73%
    03:00 +6°C° 0 mm 1 mps 730 mmHg 72%
    04:00 +6°C° 0 mm 1 mps 730 mmHg 72%
    05:00 +6°C° 0 mm 1 mps 730 mmHg 71%
    06:00 +6°C° 0 mm 1 mps 730 mmHg 70%
    07:00 +7°C° 0 mm 1 mps 730 mmHg 68%
    08:00 +7°C° 0 mm 1 mps 730 mmHg 65%
    09:00 +8°C° 0 mm 1 mps 730 mmHg 63%
    10:00 +9°C° 0 mm 1 mps 730 mmHg 61%
    11:00 +10°C° 0 mm 1 mps 730 mmHg 58%
    12:00 +11°C° 0 mm 1 mps 729 mmHg 55%
    13:00 +11°C° 0 mm 1 mps 729 mmHg 57%
    14:00 +11°C° 0 mm 1 mps 729 mmHg 59%
    15:00 +11°C° 0 mm 1 mps 729 mmHg 60%
    16:00 +10°C° 0 mm 1 mps 729 mmHg 66%
    17:00 +8°C° 0 mm 2 mps 729 mmHg 71%
    18:00 +7°C° 0 mm 2 mps 729 mmHg 76%
    19:00 +7°C° 0 mm 2 mps 730 mmHg 77%
    20:00 +6°C° 0 mm 2 mps 730 mmHg 78%
    21:00 +6°C° 0 mm 2 mps 730 mmHg 78%
    22:00 +7°C° 0 mm 1 mps 730 mmHg 78%
    23:00 +7°C° 0 mm 1 mps 730 mmHg 78%

    Day after tomorrow, 18 December, Monday

    Time Temperature Precipitation Wind Pressure Humidity
    00:00 +7°C° 0 mm 1 mps 730 mmHg 78%
    01:00 +7°C° 0 mm 1 mps 729 mmHg 78%
    02:00 +6°C° 0 mm 1 mps 729 mmHg 77%
    03:00 +6°C° 0 mm 1 mps 729 mmHg 77%
    04:00 +6°C° 0 mm 1 mps 729 mmHg 76%
    05:00 +6°C° 0 mm 1 mps 729 mmHg 76%
    06:00 +6°C° 0 mm 1 mps 729 mmHg 75%
    07:00 +7°C° 0 mm 1 mps 729 mmHg 72%
    08:00 +7°C° 0 mm 1 mps 729 mmHg 69%
    09:00 +8°C° 0 mm 1 mps 729 mmHg 66%
    10:00 +9°C° 0 mm 1 mps 729 mmHg 62%
    11:00 +10°C° 0 mm 1 mps 728 mmHg 57%
    12:00 +11°C° 0 mm 1 mps 728 mmHg 53%
    13:00 +12°C° 0 mm 1 mps 727 mmHg 52%
    14:00 +12°C° 0 mm 1 mps 727 mmHg 50%
    15:00 +12°C° 0 mm 1 mps 727 mmHg 49%
    16:00 +11°C° 0 mm 1 mps 727 mmHg 52%
    17:00 +10°C° 0 mm 1 mps 728 mmHg 56%
    18:00 +9°C° 0 mm 1 mps 728 mmHg 59%
    19:00 +9°C° 0 mm 1 mps 728 mmHg 59%
    20:00 +9°C° 0 mm 1 mps 728 mmHg 59%
    21:00 +8°C° 0 mm 1 mps 728 mmHg 60%
    22:00 +8°C° 0 mm 1 mps 728 mmHg 61%
    23:00 +8°C° 0 mm 1 mps 728 mmHg 62%

    19 December, Tuesday

    Time Temperature Precipitation Wind Pressure Humidity
    00:00 +8°C° 0 mm 1 mps 728 mmHg 63%
    01:00 +8°C° 0 mm 1 mps 728 mmHg 63%
    02:00 +7°C° 0 mm 1 mps 728 mmHg 63%
    03:00 +7°C° 0 mm 1 mps 727 mmHg 63%
    04:00 +6°C° 0 mm 2 mps 727 mmHg 60%
    05:00 +7°C° 0 mm 2 mps 727 mmHg 58%
    06:00 +7°C° 0 mm 2 mps 727 mmHg 56%
    07:00 +8°C° 0 mm 3 mps 728 mmHg 53%
    08:00 +9°C° 0 mm 3 mps 728 mmHg 50%
    09:00 +10°C° 0 mm 3 mps 728 mmHg 46%
    10:00 +11°C° 0 mm 3 mps 727 mmHg 43%
    11:00 +13°C° 0 mm 3 mps 727 mmHg 39%
    12:00 +14°C° 0 mm 3 mps 726 mmHg 35%
    13:00 +14°C° 0 mm 3 mps 726 mmHg 36%
    14:00 +14°C° 0 mm 3 mps 726 mmHg 37%
    15:00 +14°C° 0 mm 3 mps 726 mmHg 38%
    16:00 +13°C° 0 mm 3 mps 726 mmHg 41%
    17:00 +12°C° 0 mm 3 mps 726 mmHg 44%
    18:00 +11°C° 0 mm 3 mps 726 mmHg 47%
    19:00 +10°C° 0 mm 3 mps 727 mmHg 47%
    20:00 +10°C° 0 mm 3 mps 727 mmHg 48%
    21:00 +10°C° 0 mm 3 mps 727 mmHg 48%
    22:00 +10°C° 0 mm 3 mps 727 mmHg 49%
    23:00 +9°C° 0 mm 3 mps 727 mmHg 51%

    20 December, Wednesday

    Time Temperature Precipitation Wind Pressure Humidity
    00:00 +9°C° 0 mm 3 mps 727 mmHg 52%
    01:00 +9°C° 0 mm 3 mps 728 mmHg 53%
    02:00 +9°C° 0 mm 3 mps 728 mmHg 55%
    03:00 +8°C° 0 mm 3 mps 728 mmHg 56%
    04:00 +8°C° 0 mm 3 mps 728 mmHg 57%
    05:00 +8°C° 0 mm 3 mps 728 mmHg 58%
    06:00 +8°C° 0 mm 3 mps 728 mmHg 59%
    07:00 +9°C° 0 mm 2 mps 729 mmHg 59%
    08:00 +9°C° 0 mm 2 mps 729 mmHg 59%
    09:00 +10°C° 0 mm 2 mps 730 mmHg 59%
    10:00 +11°C° 0.1 mm 1 mps 729 mmHg 59%
    11:00 +11°C° 0.1 mm 1 mps 729 mmHg 59%
    12:00 +12°C° 0.1 mm 1 mps 729 mmHg 59%
    13:00 +11°C° 0.2 mm 1 mps 729 mmHg 62%
    14:00 +11°C° 0.2 mm 1 mps 729 mmHg 64%
    15:00 +11°C° 0.2 mm 1 mps 729 mmHg 67%
    16:00 +10°C° 0.1 mm 1 mps 729 mmHg 71%
    17:00 +10°C° 0.1 mm 1 mps 730 mmHg 74%
    18:00 +9°C° 0.1 mm 1 mps 730 mmHg 77%
    19:00 +9°C° 0.1 mm 1 mps 730 mmHg 79%
    20:00 +8°C° 0.1 mm 1 mps 730 mmHg 81%
    21:00 +8°C° 0.1 mm 1 mps 730 mmHg 82%
    22:00 +8°C° 0.4 mm 1 mps 730 mmHg 84%
    23:00 +7°C° 0.4 mm 0 mps 730 mmHg 86%

    21 December, Thursday

    Time Temperature Precipitation Wind Pressure Humidity
    00:00 +7°C° 0.4 mm 0 mps 730 mmHg 88%
    01:00 +6°C° 0.2 mm 0 mps 729 mmHg 89%
    02:00 +7°C° 0.2 mm 1 mps 729 mmHg 90%
    03:00 +7°C° 0.2 mm 1 mps 729 mmHg 90%
    04:00 +7°C° 0 mm 1 mps 729 mmHg 90%
    05:00 +7°C° 0 mm 1 mps 729 mmHg 90%
    06:00 +7°C° 0 mm 1 mps 728 mmHg 89%
    07:00 +7°C° 0 mm 1 mps 728 mmHg 86%
    08:00 +8°C° 0 mm 1 mps 728 mmHg 83%
    09:00 +8°C° 0 mm 1 mps 728 mmHg 79%
    10:00 +9°C° 0.2 mm 1 mps 727 mmHg 78%
    11:00 +9°C° 0.2 mm 1 mps 727 mmHg 76%
    12:00 +10°C° 0.2 mm 1 mps 726 mmHg 74%
    13:00 +8°C° 0.4 mm 2 mps 726 mmHg 76%
    14:00 +8°C° 0.4 mm 2 mps 725 mmHg 77%
    15:00 +8°C° 0.4 mm 2 mps 725 mmHg 79%
    16:00 +8°C° 0.4 mm 2 mps 725 mmHg 80%
    17:00 +7°C° 0.4 mm 2 mps 725 mmHg 80%
    18:00 +7°C° 0.4 mm 3 mps 725 mmHg 81%
    19:00 +7°C° 0.4 mm 3 mps 725 mmHg 81%
    20:00 +7°C° 0.4 mm 2 mps 725 mmHg 82%
    21:00 +7°C° 0.4 mm 2 mps 725 mmHg 82%
    22:00 +7°C° 0.2 mm 2 mps 724 mmHg 82%
    23:00 +7°C° 0.2 mm 2 mps 724 mmHg 82%
    Show more